星链-4015 (STARLINK-4015 )

导读

STARLINK-4015是美国SpaceX公司星链(Starlink)星座中的卫星,于2022年5月14日由猎鹰9号火箭发射,属于星链Group 4-16组网任务的48颗卫星之一。该卫星重量297kg,运行在550km左右的近地轨道,是低轨宽带互联网通信卫星。作为星链星座的组成部分,它为全球提供高速低延迟的宽带互联网服务,特别是覆盖偏远地区。卫星采用霍尔推进器,具备自主避撞能力,寿命末期会主动离轨再入大气层烧毁,减少太空垃圾。

基本信息
目录编号:
52616
目录名称:
STARLINK-4015
国际标识:
2022-052U
轨道中心:
EARTH
卫星名称:
星链-4015
卫星全名:
星链-4015 (STARLINK-4015 )
卫星状态:
已陨落 最后检测时间 2026-02-02
发射日期:
2022-05-14 UTC
国别 :
美国 (US)
星等 :
--
轨道信息
数据来源 国际轨道数据
星历时间: 2026-02-02T11:56:16+0800
轨道信息已过期135天
半长轴: 6527.999km
偏心率: 0.0009016
轨道倾角: 53.203°
近地点辐角 205.456°
升交点赤经 45.472°
平近点角 154.605°
近地点: 143.976km
远地点: 155.748km
周期: 87.484分钟
每日圈数: 16.460108
详细信息
固有亮度:
5
最大亮度:
2.5
卫星平台:
Starlink v1.5
覆盖范围:
全球
运营商:
太空探索技术公司
运营商所在国:
美国
制造商(研发单位):
太空探索技术公司
制造商所在国:
美国
使用方式:
暂无
卫星简介
星链(Starlink)计划是由太空探索技术公司(SpaceX)提出的一个巨型低轨卫星互联网星座项目,计划在2019年至2024年间在太空搭建由约1.2万颗卫星组成的“星链”网络,其中1584颗将部署在地球上空550千米处的近地轨道,并从2020年开始工作。该卫星仍在工作。